Location: Unspecified
(48.5670°N, 0.0000°E)
Time: 03:17:35
(UTC+00:00)

Vanguard 2 Rocket - Pass Details

Date: 25 August 2019
Orbit: 554 x 3327 km, 32.9° (Epoch: 19 September)

Event Time Altitude Azimuth Distance (km) Brightness Sun altitude
Rises 09:54:07 0° 272° (W) 7,065 11.1 43.7°
Reaches altitude 10° 10:03:10 10° 250° (WSW) 6,269 11.1 44.8°
Maximum altitude 10:10:14 13° 229° (SW) 5,997 11.2 45.6°
Drops below altitude 10° 10:17:11 10° 207° (SSW) 6,086 11.4 46.3°
Sets 10:25:49 0° 184° (S) 6,673 11.8 47.2°
